This demonstration page uses our WeatherBlox Daily Observations layout. Learn more.

Left ArrowRight Arrow

Hourly Observations for November 16, 2015

Temp ( °F °C ) Dew Point ( °F °C ) Humidity (%) Winds ( mph kmh ) Pressure ( in mb ) Visibility ( mi km ) Precip ( " mm )
12:51 am 00:51 Partly Cloudy 51 10.6 50 10 96 96 E 5 7 29.69 1006 9 14.48406 N/A
1:51 am 01:51 Partly Cloudy 53 11.7 50 10 89 89 NW 6 9 29.66 1004 10 16.0934 N/A
2:51 am 02:51 Cloudy 58 14.4 46 7.8 65 65 S 15 24 29.63 1003 10 16.0934 N/A
3:51 am 03:51 Cloudy 57 13.9 46 7.8 67 67 WSW 5 7 29.62 1003 10 16.0934 N/A
4:51 am 04:51 Cloudy 56 13.3 46 7.8 70 70 N N/A 29.6 1002 10 16.0934 N/A
5:51 am 05:51 Cloudy 53 11.7 46 7.8 77 77 NW 16 26 29.62 1003 10 16.0934 N/A
5:58 am 05:58 Mostly Cloudy 52 11.1 45 7.2 77 77 NW 9 15 29.65 1004 10 16.0934 N/A
6:51 am 06:51 Cloudy 49 9.4 43 6.1 80 80 NW 23 37 29.64 1004 10 16.0934 N/A
7:51 am 07:51 Cloudy with Light Rain 44 6.7 40 4.4 85 85 NW 16 26 29.68 1005 10 16.0934 0.02 0.508
8:51 am 08:51 Cloudy with Light Rain 44 6.7 40 4.4 85 85 WNW 24 39 29.72 1006 10 16.0934 0.05 1.27
9:51 am 09:51 Cloudy with Light Rain 42 5.6 37 2.8 82 82 WNW 25 41 29.72 1007 10 16.0934 0.01 0.254
11:49 am 11:49 Cloudy with Light Rain 43 6 36 2 76 76 WNW 25 41 29.8 1009 8 12.87472 0.01 0.254
11:51 am 11:51 Cloudy with Light Rain 42 5.6 35 1.7 76 76 WNW 23 37 29.74 1007 8 12.87472 0.01 0.254
11:58 am 11:58 Cloudy with Light Rain 43 6.1 35 1.7 74 74 WNW 22 35 29.8 1009 10 16.0934 N/A
12:51 pm 12:51 Mostly Cloudy 45 7.2 33 0.6 63 63 WNW 10 17 29.7 1006 10 16.0934 N/A
1:51 pm 13:51 Mostly Cloudy 50 10 31 -0.6 48 48 W 18 30 29.68 1005 10 16.0934 N/A
2:51 pm 14:51 Cloudy 50 10 28 -2.2 43 43 WNW 26 43 29.67 1005 10 16.0934 N/A
3:51 pm 15:51 Cloudy 48 8.9 31 -0.6 52 52 WNW 21 33 29.7 1006 10 16.0934 N/A
4:51 pm 16:51 Cloudy 46 7.8 30 -1.1 54 54 WNW 24 39 29.73 1007 10 16.0934 N/A
5:51 pm 17:51 Cloudy 45 7.2 30 -1.1 56 56 WNW 18 30 29.78 1008 10 16.0934 N/A
6:51 pm 18:51 Cloudy with Light Rain 43 6.1 33 0.6 68 68 WNW 20 31 29.82 1010 10 16.0934 N/A
7:51 pm 19:51 Cloudy with Light Rain 42 5.6 35 1.7 76 76 NW 14 22 29.84 1011 10 16.0934 N/A
8:51 pm 20:51 Cloudy 43 6.1 34 1.1 71 71 NNW 12 19 29.84 1011 10 16.0934 N/A
9:51 pm 21:51 Cloudy 43 6.1 33 0.6 68 68 NW 14 22 29.85 1011 10 16.0934 N/A
10:51 pm 22:51 Cloudy 44 6.7 33 0.6 65 65 NW 12 19 29.85 1011 10 16.0934 N/A
11:51 pm 23:51 Cloudy 44 6.7 32 undefined 63 63 NNW 12 19 29.86 1011 10 16.0934 N/A

Powered by AerisWeather